sat.trackr.live / text

‹ back to catalog

STARLINK-38063

NORAD 69979 · 2026-159E

PAYLOAD ACTIVE UNKNOWN

§ Identity

Operator
Country
US
Launch date
2026-07-11
Launch site
AFWTR
Launch vehicle
Mass (kg)
RCS (m²)

Purposes: comms

External: N2YO · Heavens-Above · Gunter

§ Orbital elements

Epoch: 2026-09-20T00:00:02.998944Z

Period
92.95 min
Inclination
97.2854°
Eccentricity
0.0001534
Mean motion
15.49242713 rev/d
Perigee alt
417.9 km
Apogee alt
420.0 km
Semi-major
6,797.1 km
B*
-2.4461e-3
RAAN
104.8301°
Arg perigee
103.3901°
Mean anomaly
158.1364°
Rev number
596

§ Raw data

STARLINK-380631 69979U 26159E   26263.00003471 -.00131188  00000+0 -24461-2 0  99992 69979  97.2854 104.8301 0001534 103.3901 158.1364 15.49242713  5960

JSON: /api/v1/satellites/69979 · /tle

For live sub-satellite position, see the globe view (requires WebGL).

§ Visibility from observer

Set your observer location to see the next 7 days of passes ≥ 10°. The values pass through the URL so the page stays shareable.

No JS? Fill the form by hand. The geolocation button needs JavaScript.